Location: Kaarina
(60.4167°N, 22.4167°E)
Time: 23:35:00
(UTC+03:00)

ADEOS Rocket - Pass Details

Date: 24 August 2019
Orbit: 859 x 1307 km, 98.7° (Epoch: 14 September)

Event Time Altitude Azimuth Distance (km) Brightness Sun altitude
Rises 22:29:07 0° 18° (NNE) 3,536 6.3 -9.9°
Reaches altitude 10° 22:31:26 10° 18° (NNE) 2,630 5.6 -10.1°
Maximum altitude 22:37:18 83° 292° (WNW) 999 3.2 -10.6°
Drops below altitude 10° 22:43:47 10° 205° (SSW) 2,890 5.2 -11.1°
Sets 22:46:26 0° 205° (SSW) 3,908 5.9 -11.4°
